DELUX EDDH-ZZZZ

Flight info

Callsign DELUX
Flight time N/A
Altitude
Route VFR DCT
Aircraft COL4

Departure

Time 2026-05-04 21:42
Airport Hamburg Helmut Schmidt Airport (EDDH)

Arrival

Time N/A
Airport ZZZZ
Time Latitude Longitude Altitude Speed Heading
2026-05-04 21:15 53.62735 9.98911 42 ft 0 kts 63°
2026-05-04 21:32 53.62739 9.98907 42 ft 0 kts 232°
2026-05-04 21:32 53.62738 9.98904 42 ft 0 kts 243°
2026-05-04 21:33 53.62733 9.98886 42 ft 3 kts 245°
2026-05-04 21:33 53.62731 9.98872 42 ft 0 kts 288°
2026-05-04 21:33 53.62741 9.98854 42 ft 5 kts 330°
2026-05-04 21:33 53.62766 9.98821 42 ft 3 kts 330°
2026-05-04 21:34 53.62771 9.98817 42 ft 0 kts 333°
2026-05-04 21:34 53.62771 9.98816 42 ft 1 kts 333°
2026-05-04 21:34 53.62794 9.98797 42 ft 0 kts
2026-05-04 21:34 53.62799 9.98799 42 ft 2 kts 26°
2026-05-04 21:35 53.62830 9.98838 42 ft 8 kts 51°
2026-05-04 21:35 53.62820 9.98931 42 ft 12 kts 123°
2026-05-04 21:35 53.62757 9.98992 42 ft 8 kts 160°
2026-05-04 21:35 53.62714 9.99030 42 ft 7 kts 151°
2026-05-04 21:36 53.62668 9.99070 42 ft 9 kts 155°
2026-05-04 21:36 53.62592 9.99145 42 ft 17 kts 147°
2026-05-04 21:36 53.62589 9.99328 42 ft 16 kts 85°
2026-05-04 21:36 53.62606 9.99478 42 ft 10 kts 71°
2026-05-04 21:37 53.62616 9.99559 42 ft 6 kts 75°
2026-05-04 21:37 53.62621 9.99612 42 ft 4 kts 81°
2026-05-04 21:37 53.62625 9.99643 42 ft 0 kts 72°
2026-05-04 21:37 53.62626 9.99649 42 ft 3 kts 76°
2026-05-04 21:38 53.62634 9.99711 42 ft 6 kts 77°
2026-05-04 21:38 53.62641 9.99763 42 ft 3 kts 72°
2026-05-04 21:38 53.62641 9.99765 42 ft 0 kts 75°
2026-05-04 21:38 53.62645 9.99780 41 ft 5 kts 62°
2026-05-04 21:39 53.62685 9.99851 41 ft 12 kts 28°
2026-05-04 21:39 53.62758 9.99842 41 ft 0 kts 342°
2026-05-04 21:40 53.62772 9.99827 41 ft 4 kts 329°
2026-05-04 21:40 53.62788 9.99812 40 ft 1 kts 330°
2026-05-04 21:40 53.62906 9.99710 40 ft 45 kts 331°
2026-05-04 21:40 53.63340 9.99340 42 ft 92 kts 332°
2026-05-04 21:41 53.63947 9.98790 196 ft 107 kts 329°
2026-05-04 21:41 53.64619 9.98146 395 ft 112 kts 330°
2026-05-04 21:41 53.65351 9.97443 439 ft 129 kts 329°
2026-05-04 21:41 53.66132 9.96686 592 ft 129 kts 329°
2026-05-04 21:42 53.66923 9.95994 742 ft 126 kts 345°
2026-05-04 21:42 53.67760 9.96432 801 ft 136 kts 46°
2026-05-04 21:42 53.68059 9.97932 910 ft 138 kts 87°
2026-05-04 21:42 53.67763 9.99442 1020 ft 138 kts 120°
2026-05-04 21:43 53.67311 10.00871 1154 ft 138 kts 116°
2026-05-04 21:43 53.67293 10.02449 1260 ft 139 kts 72°
2026-05-04 21:43 53.67477 10.04034 1365 ft 140 kts 96°
2026-05-04 21:43 53.67021 10.05287 1130 ft 110 kts 153°
2026-05-04 21:44 53.66368 10.05531 870 ft 88 kts 195°
2026-05-04 21:44 53.65996 10.04861 784 ft 75 kts 226°
2026-05-04 21:44 53.65671 10.04203 721 ft 76 kts 229°
2026-05-04 21:44 53.65312 10.03452 623 ft 93 kts 232°
2026-05-04 21:45 53.64872 10.02538 489 ft 103 kts 231°
2026-05-04 21:45 53.64420 10.01622 353 ft 101 kts 231°
2026-05-04 21:45 53.63973 10.00718 214 ft 100 kts 231°
2026-05-04 21:45 53.63533 9.99826 89 ft 94 kts 231°
2026-05-04 21:46 53.63159 9.99078 42 ft 73 kts 232°
2026-05-04 21:46 53.62847 9.98439 39 ft 80 kts 230°
2026-05-04 21:46 53.62438 9.97567 73 ft 110 kts 229°
2026-05-04 21:46 53.61949 9.96580 328 ft 105 kts 231°
2026-05-04 21:47 53.61460 9.95578 327 ft 122 kts 231°
2026-05-04 21:47 53.60894 9.94448 684 ft 124 kts 224°
2026-05-04 21:47 53.60087 9.94208 1076 ft 126 kts 157°
2026-05-04 21:47 53.59385 9.95108 1442 ft 127 kts 142°
2026-05-04 21:48 53.58679 9.96075 1502 ft 137 kts 141°
2026-05-04 21:48 53.58152 9.97414 1500 ft 146 kts 97°
2026-05-04 21:48 53.58463 9.99016 1507 ft 150 kts 52°
2026-05-04 21:48 53.59113 10.00406 1512 ft 153 kts 52°
2026-05-04 21:49 53.59755 10.01772 1508 ft 143 kts 51°
2026-05-04 21:49 53.60355 10.03044 1499 ft 136 kts 51°
2026-05-04 21:49 53.60932 10.04268 1485 ft 131 kts 51°
2026-05-04 21:49 53.61500 10.05474 1353 ft 132 kts 51°
2026-05-04 21:50 53.62071 10.06688 1216 ft 132 kts 51°
2026-05-04 21:50 53.62645 10.07889 1080 ft 131 kts 46°
2026-05-04 21:50 53.63455 10.08327 994 ft 124 kts 344°
2026-05-04 21:50 53.64061 10.07413 994 ft 118 kts 303°
2026-05-04 21:51 53.64529 10.06284 967 ft 117 kts 304°
2026-05-04 21:51 53.64962 10.05089 809 ft 125 kts 287°
2026-05-04 21:51 53.65104 10.03667 628 ft 122 kts 279°
2026-05-04 21:51 53.65076 10.02288 466 ft 117 kts 240°
2026-05-04 21:52 53.64443 10.01768 394 ft 95 kts 168°
2026-05-04 21:52 53.64004 10.01421 269 ft 78 kts 254°
2026-05-04 21:52 53.63841 10.00556 98 ft 80 kts 251°
2026-05-04 21:52 53.63538 9.99855 52 ft 66 kts 229°
2026-05-04 21:53 53.63274 9.99302 42 ft 71 kts 230°
2026-05-04 21:53 53.62857 9.98472 76 ft 113 kts 225°
2026-05-04 21:53 53.62144 9.97589 121 ft 139 kts 231°
2026-05-04 21:53 53.61589 9.96296 506 ft 136 kts 243°
2026-05-04 21:54 53.61628 9.94779 720 ft 136 kts 301°
2026-05-04 21:54 53.62397 9.93859 799 ft 139 kts 335°
2026-05-04 21:54 53.63264 9.93150 918 ft 139 kts 334°
2026-05-04 21:54 53.64136 9.92453 1037 ft 139 kts 334°
2026-05-04 21:55 53.65013 9.91762 1146 ft 140 kts 334°
2026-05-04 21:55 53.65893 9.91066 1267 ft 140 kts 334°
2026-05-04 21:55 53.66775 9.90377 1380 ft 139 kts 338°
2026-05-04 21:55 53.67710 9.90552 1463 ft 143 kts 34°
2026-05-04 21:56 53.68184 9.92036 1581 ft 156 kts 86°
2026-05-04 21:56 53.67879 9.93786 1755 ft 162 kts 119°
2026-05-04 21:56 53.67272 9.95400 1957 ft 165 kts 123°
2026-05-04 21:56 53.66535 9.96937 1994 ft 175 kts 146°
2026-05-04 21:57 53.65349 9.97353 1993 ft 181 kts 190°
2026-05-04 21:57 53.64223 9.96983 2140 ft 150 kts 189°
2026-05-04 21:57 53.63388 9.96060 1822 ft 146 kts 237°
2026-05-04 21:57 53.63265 9.94489 1668 ft 135 kts 283°
2026-05-04 21:58 53.63635 9.92961 1327 ft 145 kts 300°
2026-05-04 21:58 53.64285 9.91768 1370 ft 132 kts 321°
2026-05-04 21:58 53.65075 9.90998 1370 ft 125 kts 338°
2026-05-04 21:58 53.65878 9.90656 1512 ft 111 kts 359°
2026-05-04 21:59 53.66618 9.91146 1444 ft 118 kts 45°
2026-05-04 21:59 53.66843 9.92516 1250 ft 131 kts 109°
2026-05-04 21:59 53.66781 9.93977 1157 ft 132 kts 83°
2026-05-04 21:59 53.66909 9.95542 983 ft 137 kts 85°
2026-05-04 22:00 53.66691 9.97055 633 ft 143 kts 137°
2026-05-04 22:00 53.65771 9.97584 222 ft 148 kts 173°
2026-05-04 22:00 53.64948 9.97975 67 ft 98 kts 148°
2026-05-04 22:00 53.64458 9.98382 53 ft 64 kts 156°
2026-05-04 22:01 53.64096 9.98665 48 ft 53 kts 158°
2026-05-04 22:01 53.63804 9.98936 44 ft 44 kts 164°
2026-05-04 22:01 53.63504 9.99179 42 ft 48 kts 153°
2026-05-04 22:01 53.63351 9.99314 42 ft 25 kts 166°
2026-05-04 22:02 53.63143 9.99306 42 ft 30 kts 191°
2026-05-04 22:02 53.62988 9.99141 42 ft 24 kts 226°
2026-05-04 22:02 53.62892 9.98954 42 ft 20 kts 228°
2026-05-04 22:02 53.62803 9.98781 42 ft 21 kts 232°
2026-05-04 22:03 53.62711 9.98652 42 ft 14 kts 154°
2026-05-04 22:03 53.62659 9.98682 42 ft 3 kts 116°
2026-05-04 22:03 53.62663 9.98731 42 ft 6 kts 58°
2026-05-04 22:03 53.62669 9.98748 42 ft 0 kts 60°